Albatros — DITX — position and weather

sailwx.info

Track history (hours):
 
Tides and Currents Weather Stations Pressure Air Temp Water Temp Dewpoint Dewpoint Depression Visibility Wind Speed Wind Dir Waves Ship Positions

Albatros

Last reported at 2014-Sep-28 13:25 UTC. Time now 2014-Oct-02 04:32 UTC.
Position N 54°31' E 013°10'.

Length 16 m.

MMSI: 211226200.

Date/timePositionNaut miles runAvg speedWind from/ knotsBaromVisibWave heightAir tempDewpointWater temp
2014-Sep-28 13:25N 54°31' E 013°10'3 3.8
2014-Sep-28 12:33N 54°34' E 013°10'6 5.7
2014-Sep-28 11:33N 54°40' E 013°11'2 1.8
2014-Sep-28 10:33N 54°41' E 013°10'1 1.3
2014-Sep-28 09:32N 54°42' E 013°12'0 0.2
2014-Sep-28 08:33N 54°42' E 013°13'1 1.2
2014-Sep-28 07:33N 54°41' E 013°11'1 0.6
2014-Sep-28 06:31N 54°41' E 013°10'6 6.4
2014-Sep-28 05:33N 54°35' E 013°10'4 4.0
2014-Sep-28 04:33N 54°31' E 013°10'2 0.1
2014-Sep-27 07:33N 54°32' E 013°08'6 5.8
2014-Sep-27 06:33N 54°38' E 013°10'5 4.5
2014-Sep-27 05:33N 54°33' E 013°08'3 2.5
2014-Sep-27 04:33N 54°31' E 013°10'0 0.0
2014-Sep-26 13:33N 54°31' E 013°10'4 4.0
2014-Sep-26 12:33N 54°35' E 013°10'5 4.8
2014-Sep-26 11:33N 54°40' E 013°11'2 2.3
2014-Sep-26 10:29N 54°42' E 013°13'1 0.8
2014-Sep-26 09:30N 54°42' E 013°11'0 0.1
2014-Sep-26 08:22N 54°42' E 013°11'0 0.5
2014-Sep-26 07:33N 54°41' E 013°11'3 2.8
2014-Sep-26 06:33N 54°39' E 013°11'6 5.8
2014-Sep-26 05:33N 54°33' E 013°08'3 2.5
2014-Sep-26 04:33N 54°31' E 013°10'  
2014-Sep-21 12:33N 54°31' E 013°10'6 5.5
2014-Sep-21 11:33N 54°36' E 013°11'5 5.1
2014-Sep-21 10:33N 54°41' E 013°10'1 1.2
2014-Sep-21 09:33N 54°42' E 013°12'1 1.1
2014-Sep-21 08:33N 54°42' E 013°11'0 0.1
2014-Sep-21 07:33N 54°42' E 013°10'3 2.9
2014-Sep-21 06:33N 54°39' E 013°11'6 6.0
2014-Sep-21 05:33N 54°33' E 013°08'2 0.1
2014-Sep-20 13:33N 54°31' E 013°10'3 3.2
2014-Sep-20 12:33N 54°34' E 013°09'7 6.9
2014-Sep-20 11:33N 54°41' E 013°12'1 1.3
2014-Sep-20 10:33N 54°42' E 013°13'1 0.6
2014-Sep-20 09:33N 54°42' E 013°12'1 0.6
2014-Sep-20 08:32N 54°42' E 013°11'0 0.5
2014-Sep-20 07:32N 54°41' E 013°10'4 3.5
2014-Sep-20 06:29N 54°38' E 013°10'5 5.7
2014-Sep-20 05:33N 54°33' E 013°08'2 0.1
2014-Sep-19 07:05N 54°31' E 013°10'1 1.5
2014-Sep-19 06:33N 54°31' E 013°09'  
Track history (hours):
 
Tides and Currents Weather Stations Pressure Air Temp Water Temp Dewpoint Dewpoint Depression Visibility Wind Speed Wind Dir Waves Ship Positions

Albatros

Last reported at 2014-Sep-28 13:25 UTC. Time now 2014-Oct-02 04:32 UTC.
Position N 54°31' E 013°10'.

Length 16 m.

MMSI: 211226200.

Date/timePositionNaut miles runAvg speedWind from/ knotsBaromVisibWave heightAir tempDewpointWater temp
2014-Sep-28 13:25N 54°31' E 013°10'3 3.8
2014-Sep-28 12:33N 54°34' E 013°10'6 5.7
2014-Sep-28 11:33N 54°40' E 013°11'2 1.8
2014-Sep-28 10:33N 54°41' E 013°10'1 1.3
2014-Sep-28 09:32N 54°42' E 013°12'0 0.2
2014-Sep-28 08:33N 54°42' E 013°13'1 1.2
2014-Sep-28 07:33N 54°41' E 013°11'1 0.6
2014-Sep-28 06:31N 54°41' E 013°10'6 6.4
2014-Sep-28 05:33N 54°35' E 013°10'4 4.0
2014-Sep-28 04:33N 54°31' E 013°10'2 0.1
2014-Sep-27 07:33N 54°32' E 013°08'6 5.8
2014-Sep-27 06:33N 54°38' E 013°10'5 4.5
2014-Sep-27 05:33N 54°33' E 013°08'3 2.5
2014-Sep-27 04:33N 54°31' E 013°10'0 0.0
2014-Sep-26 13:33N 54°31' E 013°10'4 4.0
2014-Sep-26 12:33N 54°35' E 013°10'5 4.8
2014-Sep-26 11:33N 54°40' E 013°11'2 2.3
2014-Sep-26 10:29N 54°42' E 013°13'1 0.8
2014-Sep-26 09:30N 54°42' E 013°11'0 0.1
2014-Sep-26 08:22N 54°42' E 013°11'0 0.5
2014-Sep-26 07:33N 54°41' E 013°11'3 2.8
2014-Sep-26 06:33N 54°39' E 013°11'6 5.8
2014-Sep-26 05:33N 54°33' E 013°08'3 2.5
2014-Sep-26 04:33N 54°31' E 013°10'  
2014-Sep-21 12:33N 54°31' E 013°10'6 5.5
2014-Sep-21 11:33N 54°36' E 013°11'5 5.1
2014-Sep-21 10:33N 54°41' E 013°10'1 1.2
2014-Sep-21 09:33N 54°42' E 013°12'1 1.1
2014-Sep-21 08:33N 54°42' E 013°11'0 0.1
2014-Sep-21 07:33N 54°42' E 013°10'3 2.9
2014-Sep-21 06:33N 54°39' E 013°11'6 6.0
2014-Sep-21 05:33N 54°33' E 013°08'2 0.1
2014-Sep-20 13:33N 54°31' E 013°10'3 3.2
2014-Sep-20 12:33N 54°34' E 013°09'7 6.9
2014-Sep-20 11:33N 54°41' E 013°12'1 1.3
2014-Sep-20 10:33N 54°42' E 013°13'1 0.6
2014-Sep-20 09:33N 54°42' E 013°12'1 0.6
2014-Sep-20 08:32N 54°42' E 013°11'0 0.5
2014-Sep-20 07:32N 54°41' E 013°10'4 3.5
2014-Sep-20 06:29N 54°38' E 013°10'5 5.7
2014-Sep-20 05:33N 54°33' E 013°08'2 0.1
2014-Sep-19 07:05N 54°31' E 013°10'1 1.5
2014-Sep-19 06:33N 54°31' E 013°09'  

Dump ship's entire track history